Jackpot

Texas Poker Multi Jackpot System

Kini Telah hadir Jackpot SUPER ROYAL FLUSH

Kini Telah hadir Jackpot 2000 (khusus table VIP keatas).

Ikutilah global jackpot yang tersedia di system kami, dengan system jackpot terbaru dan pertama di indonesia, anda dapat membeli jackpot dengan harga 100 rupiah saja dan menangkan hadiahnya hingga puluhan juta rupiah.

Jackpot bukanlah suatu keharusan untuk dibeli, namun kami memberikan suatu fitur tambahan untuk member tercinta dari www.kilatqq.com.

Terdapat tiga pilihan harga jackpot yang bisa anda beli yaitu :100,500,1000 dan 2000(khusus table VIP Keatas) rupiah.

Hadiah dari Multi jackpot system www.kilatqq.com

  1. full house x 10 harga jackpot yang anda beli.
      (contoh:anda membeli 1000 maka:1000 X10 = 10.000)
  2. four of kind x 250 harga jackpot yang anda beli
      (contoh:anda membeli 1000 maka:1000 X250 = 250.000)
  3. Straight flush x 1200
      (contoh:anda membeli 1000 maka:1000 X1200 = 1.200.000)
  4. Royal flush x 10000 harga jackpot yang anda beli
      (contoh:anda membeli 1000 maka:1000 X10000 = 10.000.000)
  5. SUPER ROYAL FLUSH x 30000 harga jackpot yang anda beli
      (contoh:anda membeli 1000 maka:1000 X30000 = 30.000.000)

Kondisi kartu

  1. full house adalah kondisi kartu dimana kartu anda dan kartu tengah dengan total 7 kartu bisa mendapatkan nilai 5 kartu dengan kombinasi 1 tris(three of kind) dan 1 pair, contoh 3 kartu 10 dan 2 kartu 5
  2. Four of kind adalah kondisi kartu dimana kartu anda dan kartu tengah dengan total 7 kartu bisa mendapatkan nilai 5 kartu dengan kombinasi 4 kartu yang sama jumlah dan 1 kartu apapun juga contoh anda mendapatkan 4 buah kartu angka 3 dan 1 kartu apapun.
  3. Staright flush adalah kondisi kartu dimana kartu anda dan kartu tengah dengan total 7 kartu bisa mendapatkan nilai 5 kartu dengan kombinasi seri / staright dengan kembang yang sama contoh : urutan kartu dari angka 5, 6, 7, 8 , 9 10 dengan kembang yg sama misalnya as hati
  4. Royal flush adalah kondisi kartu dimana kartu anda dan kartu tengah dengan total 7 kartu bisa mendapatkan nilai 5 kartu dengan kombinasi seri / staright dengan kembang yang sama tetapi kartu tersebut haruslah dimulai dari 10. contoh 10, Queen, Jack, King dan aces dengan kembang yang sama
  5. Super Royal flush adalah kondisi kartu dimana Kedua kartu anda digabung dengan 3 kartu pertama meja haruslah royal flush. contoh kartu anda 10,Queen kembang sama dan 3 kartu pertama meja adalah Jack, King dan aces dengan kembang yang sama

Demikian adalah penjelasan dari Multi Jackpot www.kilatqq.com terima kasih dan selamat bermain salam hoki dari kami

Texas Poker Jackpot Winner

TOP SUPER ROYAL FLUSH
No.TanggalNamaPriceWin
115/12 23:51T1URSuper Royal flush15,000,000
215/12 22:19TARONCOPSuper Royal flush30,000,000
315/12 22:06ANES122Super Royal flush15,000,000
415/12 21:25AIIII009Super Royal flush15,000,000
515/12 16:03ROESLI19Super Royal flush6,000,000
TOP ROYAL FLUSH
No.TanggalNamaPriceWin
116/12 00:20B6F55872Royal flush5,000,000
216/12 00:01SYURIKEN83Royal flush5,000,000
315/12 23:50JM1616Royal flush2,000,000
415/12 23:50PIRMANPARRoyal flush5,000,000
515/12 23:473NTUUUY13Royal flush2,000,000
TOP STRAIGHT FLUSH
No.TanggalNamaPriceWin
116/12 00:32LAD1NGStraight Flush600,000
216/12 00:32CRAZZYYPOEStraight Flush120,000
316/12 00:31HENGPOKERStraight Flush240,000
416/12 00:31ACD888Straight Flush600,000
516/12 00:30ZEBOEL99Straight Flush600,000
LATEST JACKPOT
No.TanggalNamaPriceWin
116/12 00:33BELUT222Full House2,000
216/12 00:33MOJA123Full House1,000
316/12 00:33PLIEN121Full House5,000
416/12 00:33FAX666Full House1,000
516/12 00:33ZHUTAXFull House20,000
616/12 00:33TEREKELFull House1,000
716/12 00:33F1233DOMFull House1,000
816/12 00:33KUTUK89Full House2,000
916/12 00:33LB884553Full House1,000
1016/12 00:33RYONPUI009Full House1,000
1116/12 00:33RIFFBULFull House2,000
1216/12 00:33AAW05Full House1,000
1316/12 00:33PAREWAFull House10,000
1416/12 00:32REJEKY100Full House2,000
1516/12 00:32JAMALD00Full House2,000
1616/12 00:32SALSA30Full House500
1716/12 00:32TALA1987Full House10,000
1816/12 00:32JAUK89Full House5,000
1916/12 00:32M1T5UK135Full House2,000
2016/12 00:32MADDERODOKFull House2,000
2116/12 00:32IZ596479Full House5,000
2216/12 00:32KAKCIK19Four Of A Kind50,000
2316/12 00:32INTER_99Full House1,000
2416/12 00:32THEZA8Full House5,000
2516/12 00:32HOKIE2016Full House5,000
2616/12 00:32C8A69301Full House2,000
2716/12 00:32F8A55F4BFull House1,000
2816/12 00:32DKV2B0O7QGFull House20,000
2916/12 00:32GOZ1_32Full House20,000
3016/12 00:32SPAR21Full House2,000
3116/12 00:32AELJHONFull House20,000
3216/12 00:32CIAM92Full House5,000
3316/12 00:32KEPOBOZFull House5,000
3416/12 00:32LAD1NGStraight Flush600,000
3516/12 00:32JOELJAZZFull House5,000
3616/12 00:32BLENGER13Full House2,000
3716/12 00:32DEWAYULIFull House500
3816/12 00:32AC0D9B76Full House2,000
3916/12 00:32CRAZZYYPOEStraight Flush120,000
4016/12 00:32RHAMBO23Four Of A Kind50,000
4116/12 00:32ZIHAT234Full House2,000
4216/12 00:32PIKATCU88Full House1,000
4316/12 00:32TAKKABURRFour Of A Kind25,000
4416/12 00:32WINTHENO78Four Of A Kind250,000
4516/12 00:32C8D6C761Full House5,000
4616/12 00:32BER__JUANGFull House10,000
4716/12 00:32J0NT3RFull House10,000
4816/12 00:32D16OFull House10,000
4916/12 00:32DHUM3NKSFull House20,000
5016/12 00:32IONKJZJ5PFFull House20,000

Domino Multi Jackpot System

Ikutilah global jackpot yang tersedia di system kami, dengan system jackpot terbaru dan pertama di indonesia, anda dapat membeli jackpot dengan harga 100 rupiah saja dan menangkan hadiahnya hingga puluhan juta rupiah.

Jackpot bukanlah suatu keharusan untuk dibeli, namun kami memberikan suatu fitur tambahan untuk member tercinta dari www.kilatqq.com.

Terdapat tiga pilihan harga jackpot yang bisa anda beli yaitu :100,500 dan 1000 rupiah.

Hadiah dari Multi jackpot system www.kilatqq.com

  1. Murni Kecil x 50 harga jackpot yang anda beli.
      (contoh:anda membeli 1000 maka:1000 X 50 = 50.000)
  2. Murni Besar x 50 harga jackpot yang anda beli
      (contoh:anda membeli 1000 maka:1000 X 50 = 50.000)
  3. BALAK x 100 harga jackpot yang anda beli
      (contoh:anda membeli 1000 maka:1000 X 100 = 100.000)
  4. ENAM DEWA x 6666 harga jackpot yang anda beli
      (contoh:anda membeli 1000 maka:1000 X 6666 = 6.666.000)

Demikian adalah penjelasan dari Multi Jackpot www.kilatqq.com terima kasih dan selamat bermain salam hoki dari kami

Domino Jackpot Winner

TOP ENAM DEWA
No.TanggalNamaPriceWin
115/12 23:36QWINBR0murni enam6,666,000
215/12 22:38MURA1991murni enam6,666,000
315/12 22:17HIHIHII22murni enam3,333,000
415/12 21:33HOKEY9191murni enam6,666,000
515/12 21:15KUDOI11murni enam666,600
TOP BALAK
No.TanggalNamaPriceWin
116/12 00:32NIDALbalak100,000
216/12 00:32HIDAYAT7balak10,000
316/12 00:31KOY2401balak50,000
416/12 00:28AKALOHbalak100,000
516/12 00:27PEPEK20000balak100,000
LATEST JACKPOT
No.TanggalNamaPriceWin
116/12 00:32NIDALbalak100,000
216/12 00:32REYDO99murni kecil5,000
316/12 00:32KONG555murni besar50,000
416/12 00:32HIDAYAT7balak10,000
516/12 00:32ALDIZA99murni besar50,000
616/12 00:32OLA014murni kecil5,000
716/12 00:31OMENPEREZmurni besar5,000
816/12 00:31YOEDHYmurni besar25,000
916/12 00:31SAFEQQmurni kecil25,000
1016/12 00:31APUS27lucky992,500
1116/12 00:31KOY2401balak50,000
1216/12 00:31AEDIANSYAHlucky992,500
1316/12 00:30QKI1989murni besar50,000
1416/12 00:29IMRANITAmurni kecil25,000
1516/12 00:28AKALOHbalak100,000
1616/12 00:28LOTUS0308murni kecil50,000
1716/12 00:28ABDULLAHCCmurni kecil25,000
1816/12 00:28TINI03murni besar5,000
1916/12 00:28B1ECBCEBmurni besar50,000
2016/12 00:27KAI303murni besar50,000
2116/12 00:27PEPEK20000balak100,000
2216/12 00:27GEPE9999murni kecil25,000
2316/12 00:27LYBAS2108balak100,000
2416/12 00:26G3H633L2G4murni kecil50,000
2516/12 00:26PUTRAHADILmurni kecil5,000
2616/12 00:26SINX7murni kecil25,000
2716/12 00:25D_P38balak100,000
2816/12 00:25ERWINKEYmurni besar50,000
2916/12 00:24PEPEK20000murni kecil50,000
3016/12 00:23TEMPE209murni kecil50,000
3116/12 00:23KL1W0NP101murni besar25,000
3216/12 00:23R4MB0123murni besar25,000
3316/12 00:23BM1658murni besar50,000
3416/12 00:23ADITCUPLEYmurni besar50,000
3516/12 00:22TOLCIKmurni kecil25,000
3616/12 00:22FATAN79murni kecil25,000
3716/12 00:22TATOKTOKmurni besar5,000
3816/12 00:21ADITCUPLEYmurni besar50,000
3916/12 00:20BENEH98murni kecil25,000
4016/12 00:20JFRBS00murni kecil5,000
4116/12 00:19TATOKTOKmurni besar5,000
4216/12 00:19KAMIL26murni besar5,000
4316/12 00:19GO9933murni besar50,000
4416/12 00:19QS6C1RYPXGbalak10,000
4516/12 00:18CAKMJKmurni kecil25,000
4616/12 00:18CINIKSZ78balak10,000
4716/12 00:18OJOB99balak100,000
4816/12 00:17KUCIONG30murni besar50,000
4916/12 00:17BULLSHITTTlucky99200,000
5016/12 00:16VINO656balak50,000

Ceme Multi Jackpot System

Jackpot dilihat dari gabungan kartu pemain dengan kartu bandar. Bandar harus membeli jackpot sebanyak jumlah player yang sedang duduk. Sebagai contoh bila terdapat 3 pemain duduk bermain, dan bandar memutuskan untuk membeli jackpot Rp 1.000, maka pada periode tersebut bandar akan membeli jackpot sebanyak 3xRp1.000 = Rp3.000.

Jackpot bukanlah suatu keharusan untuk dibeli, namun kami memberikan suatu fitur tambahan untuk member tercinta dari www.kilatqq.com.

Terdapat tiga pilihan harga jackpot yang bisa anda beli yaitu :100,500 dan 1000 rupiah.

Hadiah dari Multi jackpot system www.kilatqq.com

  1. Murni Kecil x 50 harga jackpot yang anda beli.
      (contoh:anda membeli 1000 maka:1000 X 50 = 50.000)
  2. Murni Besar x 50 harga jackpot yang anda beli
      (contoh:anda membeli 1000 maka:1000 X 50 = 50.000)
  3. BALAK x 200 harga jackpot yang anda beli
      (contoh:anda membeli 1000 maka:1000 X 200 = 200.000)
  4. ENAM DEWA x 6666 harga jackpot yang anda beli
      (contoh:anda membeli 1000 maka:1000 X 6666 = 6.666.000)

Demikian adalah penjelasan dari Multi Jackpot www.kilatqq.com terima kasih dan selamat bermain salam hoki dari kami

Ceme Jackpot Winner

TOP ENAM DEWA
No.TanggalNamaPriceWin
116/12 00:33WHYUDmurni enam3,333,000
216/12 00:33JDBOSBSRmurni enam3,333,000
316/12 00:30GULTOM03murni enam6,666,000
416/12 00:30IBENK13murni enam666,600
516/12 00:24MINAH_AJAmurni enam3,333,000
TOP BALAK
No.TanggalNamaPriceWin
116/12 00:33MUVEDA89balak200,000
216/12 00:32A1SHOOT888balak20,000
316/12 00:32SURAKIBbalak200,000
416/12 00:32ROMANSYAHbalak200,000
516/12 00:32BLEDEK61balak200,000
LATEST JACKPOT
No.TanggalNamaPriceWin
116/12 00:33MUVEDA89balak200,000
216/12 00:33GULTOM03murni besar50,000
316/12 00:33IBENK13murni besar5,000
416/12 00:33WHYUDmurni enam3,333,000
516/12 00:33PERDI98murni kecil50,000
616/12 00:33JDBOSBSRmurni enam3,333,000
716/12 00:32A1SHOOT888balak20,000
816/12 00:32PT4DYOYON455murni kecil50,000
916/12 00:32HOKIBET132murni kecil25,000
1016/12 00:32EAZY89murni kecil25,000
1116/12 00:32SURAKIBbalak200,000
1216/12 00:32BUG13_1murni kecil25,000
1316/12 00:32ROMANSYAHbalak200,000
1416/12 00:32BLEDEK61balak200,000
1516/12 00:32NAGARUNTINmurni besar50,000
1616/12 00:32THAIPROmurni kecil50,000
1716/12 00:32THAIPROmurni kecil50,000
1816/12 00:32JSMPNCK86balak200,000
1916/12 00:32ALZU222balak200,000
2016/12 00:32101180murni kecil5,000
2116/12 00:31UNCL4N9murni kecil50,000
2216/12 00:31MINAH_AJAbalak100,000
2316/12 00:31FERRI21balak200,000
2416/12 00:31ALEXA0035balak20,000
2516/12 00:31NAGACANDRAmurni kecil5,000
2616/12 00:31WAHAB08murni kecil5,000
2716/12 00:31O9PARP8WTUmurni kecil50,000
2816/12 00:31ACE0408murni kecil25,000
2916/12 00:31KUTUBUSUbalak100,000
3016/12 00:31INDRA418murni besar50,000
3116/12 00:31SUHUD007murni kecil50,000
3216/12 00:31KAMAMNIANmurni besar5,000
3316/12 00:31HENGKII136murni kecil50,000
3416/12 00:31CELL777murni kecil50,000
3516/12 00:31MALDINI6balak100,000
3616/12 00:31HERU1296murni kecil5,000
3716/12 00:31NCI32247murni kecil5,000
3816/12 00:30GULTOM03murni enam6,666,000
3916/12 00:30IBENK13murni enam666,600
4016/12 00:30PULPY97murni besar25,000
4116/12 00:30BDX12murni besar25,000
4216/12 00:30CAE03B63murni besar50,000
4316/12 00:30LB883697murni besar25,000
4416/12 00:30SOBEK93murni kecil50,000
4516/12 00:30HOKIBET132balak100,000
4616/12 00:30BENKS41murni kecil50,000
4716/12 00:30CML07murni kecil25,000
4816/12 00:30IDK885594murni kecil25,000
4916/12 00:30RENDI5012murni kecil50,000
5016/12 00:30ONOGIA99murni besar50,000